Regional Weather Roundup
Issued by NWS

Home | Current Version | Previous Version | Graphics & Text | Print | Product List | Glossary On
Versions: 1 2 3 4 5 6 7 8 9 10 11 12 13 14 15 16 17 18 19 20 21 22 23 24 25 26 27 28 29 30 31 32 33 34 35 36 37 38 39 40 41 42 43 44 45 46 47 48 49 50
000
ASUS45 KCYS 191610
RWRWY

WYOMING REGIONAL WEATHER ROUNDUP
NATIONAL WEATHER SERVICE CHEYENNE WY
1000 AM MDT TUE AUG 19 2014

NOTE:  "FAIR" INDICATES FEW OR NO CLOUDS BELOW 12,000 FEET
WITH NO SIGNIFICANT WEATHER AND/OR OBSTRUCTIONS TO VISIBILITY.

WYZ001-191700-
YELLOWSTONE NATIONAL PARK

CITY           SKY/WX    TMP DP  RH WIND       PRES   REMARKS
LK YELLOWSTONE   N/A     56  47  71 VRB3      30.17R
W YELLOWSTONE  NOT AVBL

$$
WYZ002>013-054>058-071-098>099-191700-
NORTHERN WYOMING

CITY           SKY/WX    TMP DP  RH WIND       PRES   REMARKS
JACKSON        SUNNY     63  39  42 S5        30.08S
CODY           SUNNY     75  39  27 S5        29.93S
GREYBULL       MOSUNNY   72  46  39 CALM      29.87F
WORLAND        MOSUNNY   71  48  43 W5        29.89S
SHERIDAN       SUNNY     75  50  41 CALM      29.85F
BUFFALO        SUNNY     77  44  30 CALM      29.92F
GILLETTE       SUNNY     77  52  41 S10       29.89F
HULETT         FAIR      77  54  44 MISG      29.90
NEWCASTLE      FAIR      77  46  33 MISG      29.91

$$
WYZ014>020-022>026-101>103-191700-
CENTRAL WYOMING

CITY           SKY/WX    TMP DP  RH WIND       PRES   REMARKS
BIG PINEY      CLOUDY    57  39  51 E7        30.11S
PINEDALE       CLOUDY    55  43  62 W3        30.11F
DUBOIS         FAIR      63  37  39 CALM      30.09F
LANDER         CLOUDY    66  41  40 CALM      29.98S
RIVERTON       PTSUNNY   71  39  31 VRB3      29.98S
CASPER         MOSUNNY   77  42  28 S10       29.97S
DOUGLAS        MOSUNNY   74  47  38 W7        29.95

$$
WYZ021-027>030-104>119-191700-
SOUTHERN WYOMING

CITY           SKY/WX    TMP DP  RH WIND       PRES   REMARKS
EVANSTON       LGT RAIN  60  46  59 SW10      30.16R
KEMMERER       CLOUDY    59  41  51 CALM      30.16R
FORT BRIDGER   CLOUDY    65  44  45 W8        30.17R
ROCK SPRINGS   CLOUDY    66  35  31 SW10      30.12R
DIXON          LGT RAIN  70  38  31 S12G20    30.15S
RAWLINS        CLOUDY    70  35  27 S14G22    30.11R
SARATOGA       FAIR      68  37  32 MISG      30.15R
LARAMIE        MOSUNNY   73  37  27 SW20      30.13S
CHEYENNE       MOSUNNY   76  45  33 W14G22    30.02S
TORRINGTON     MOSUNNY   75  55  49 SE9       29.89S
PINE BLUFFS    FAIR      75  52  43 SW7       29.98R

$$


USA.gov is the U.S. government's official web portal to all federal, state and local government web resources and services.